Flag for U.S.A. Weather past 2 weeks in Wichita, Kansas, U.S.A.

Now
27 °F

Passing clouds.


Feels Like: 22 °F
Forecast: 35 / 65 °F
Wind: 5 mph from West

Location: Wichita Mid-Continent Airport

Current Time: Jan 26, 2015 at 2:40:25 AM

Latest Report: Jan 26, 2015 at 1:53 AM


Visibility: 10 mi

Pressure: 30.16 "Hg

Humidity: 89%

Dew point: 24 °F

Location of WichitaLocation

Historic Weather in Wichita — Graph

°F

Wichita temperature yesterday

Maximum temperature yesterday: 53 °F (at 12:53 AM)
Minimum temperature yesterday: 29 °F (at 10:53 PM)
Average temperature yesterday: 46 °F

Past Weeks' High & Low Weather Summary

 TemperatureHumidityPressure
High73 °F (Jan 19, 3:53 PM)97% (Jan 12, 12:01 AM)30.66 "Hg (Jan 12, 12:01 AM)
Low13 °F (Jan 13, 6:53 AM)18% (Jan 19, 3:53 PM)29.78 "Hg (Jan 17, 3:53 AM)
Average38 °F57%30.19 "Hg
* Reported Jan 11 12:53 AM — Jan 26 12:53 AM, Wichita, Weather by CustomWeather, © 2014

Note: Actual official high and low records may vary slightly from our data, if they occured in-between our weather recording intervals... More about our weather records

Advertising

Wichita weather history for previous 24 hours

 ConditionsComfort  
Time TempWeatherWind HumidityBarometerVisibility
12:53 AM
Jan 26
27 °FPassing clouds.5 mph85%30.16 "Hg10 mi
11:53 PM
Jan 25
30 °FClear.No wind79%30.16 "Hg10 mi
10:53 PM29 °FClear.6 mph79%30.16 "Hg10 mi
9:53 PM30 °FClear.No wind82%30.14 "Hg10 mi
8:53 PM38 °FClear.6 mph68%30.14 "Hg10 mi
7:53 PM42 °FPassing clouds.7 mph60%30.15 "Hg10 mi
6:53 PM44 °FPassing clouds.8 mph55%30.13 "Hg10 mi
5:53 PM47 °FPassing clouds.15 mph48%30.10 "Hg10 mi
4:53 PM50 °FScattered clouds.18 mph44%30.07 "Hg10 mi
3:53 PM52 °FScattered clouds.22 mph40%30.03 "Hg10 mi
2:53 PM51 °FPartly sunny.23 mph42%30.02 "Hg10 mi
1:53 PM50 °FPartly sunny.26 mph44%30.00 "Hg10 mi
12:53 PM51 °FPartly sunny.31 mph42%29.98 "Hg10 mi
11:53 AM51 °FPartly sunny.32 mph42%29.98 "Hg10 mi
10:53 AM49 °FPartly sunny.33 mph44%29.96 "Hg10 mi
9:53 AM48 °FPartly sunny.25 mph48%29.93 "Hg10 mi
8:53 AM47 °FPartly sunny.25 mph50%29.91 "Hg10 mi
7:53 AM47 °FPartly sunny.22 mph52%29.90 "Hg10 mi
6:53 AM47 °FOvercast.21 mph54%29.88 "Hg10 mi
5:53 AM48 °FMostly cloudy.22 mph52%29.85 "Hg10 mi
4:53 AM48 °FClear.25 mph54%29.83 "Hg10 mi
3:53 AM49 °FClear.23 mph50%29.83 "Hg10 mi
2:53 AM50 °FPassing clouds.25 mph52%29.83 "Hg10 mi
Weather by CustomWeather, © 2014

See weather overviewHow to use our weather pages